Regional Weather Roundup
Issued by NWS Green Bay, WI

Home | Current Version | Previous Version | Graphics & Text | Print | Product List | Glossary Off
Versions: 1 2 3 4 5 6 7 8 9 10 11 12 13 14 15 16 17 18 19 20 21 22 23 24 25 26 27 28 29 30 31 32 33 34 35 36 37 38 39 40 41 42 43 44 45 46 47 48 49 50

000
ASUS43 KGRB 300859
RWRGRB

NORTH-CENTRAL AND NORTHEAST WISCONSIN REGIONAL WEATHER ROUNDUP
NATIONAL WEATHER SERVICE GREEN BAY WI
400 AM CDT WED JUL 30 2014

WIZ005-009-010>012-018-019-301000-
NORTH CENTRAL WISCONSIN

CITY           SKY/WX    TMP DP  RH WIND       PRES   REMARKS
IRONWOOD       NOT AVBL
MANITOWISH WTR NOT AVBL
ARBOR VITAE    NOT AVBL
EAGLE RIVER    NOT AVBL
LAND O LAKES   NOT AVBL
RHINELANDER    CLEAR     50  49  96 CALM      30.05S
PHILLIPS       CLOUDY    54  54  99 CALM      30.05S
ANTIGO         NOT AVBL
TOMAHAWK       FOG       44  43  97 CALM      30.06R VSB 1/4
MERRILL        NOT AVBL
$$

WIZ013-073-301000-
NORTHEAST WISCONSIN

CITY           SKY/WX    TMP DP  RH WIND       PRES   REMARKS
IRON MOUNTAIN  CLEAR     49  47  93 N3        30.01S
MARINETTE        N/A     54  50  87 CALM      30.00R VSB 1/2
$$

WIZ017-030-035>037-045-301000-
CENTRAL WISCONSIN

CITY           SKY/WX    TMP DP  RH WIND       PRES   REMARKS
MEDFORD        NOT AVBL
WAUSAU         CLEAR     54  53  97 NW3       30.03R
MOSINEE        CLEAR     54  54 100 N6        30.04S
MARSHFIELD     CLEAR     54  52  93 NW6       30.04R FOG
WISC RAPIDS    CLEAR     55  53  93 CALM      30.04S
STEVENS POINT  NOT AVBL
WAUPACA        MOCLDY    59  56  92 NW5       30.02R
SHAWANO        CLEAR     59  56  91 N3        30.01R
CLINTONVILLE   CLEAR     55  55 100 CALM      30.01R
$$

WIZ038-039-048-051-301000-
FOX VALLEY

CITY           SKY/WX    TMP DP  RH WIND       PRES   REMARKS
NWS GREEN BAY  PTCLDY    57  57 100 N3        30.00R FOG
APPLETON       NOT AVBL
OSHKOSH        MOCLDY    57  56  96 W7        30.00R
FOND DU LAC    CLEAR     54  53  97 CALM      30.01R
$$

WIZ022-050-052-301000-
EAST CENTRAL WISCONSIN

CITY           SKY/WX    TMP DP  RH WIND       PRES   REMARKS
STURGEON BAY   CLEAR     57  54  88 N6        30.00S
MANITOWOC      PTCLDY    57  57 100 MISG      29.99S
SHEBOYGAN      CLEAR     57  55  93 NW6       29.99R
$$

LMZ563-521-522-541>543-301000-
LAKESHORE

STATION/POSITION TIME  TEMP    WIND        PRES    VSBY  WAVE
                       AIR SEA DIR/SP/G                  HT/PER
                 (UTC) (F)     (DEG/KT/KT) (MB)    (MI)  (FT/S)
SHEBOYGAN LKSHOR 0800   61     300/  9/ 11 1015.2S
KEWAUNEE LKSHORE 0800   58      10/  3/  4 1016.1F
NORTHPORT PIER   0800   56     290/  1/  1 1015.6S
N MID LAKE BUOY  0800   56 53  330/  6/  6 1014.7F         0
S GREEN BAY BUOY 0800   64 66   30/ 12     1016.4R
SISTER BAY LKSHO 0800   56        CALM       N/A
CHAMBERS ISLAND  0800   59     330/  2/  6 1015.9S
MENOMINEE LKSHOR 0800   59     330/  5/  5 1016.3S
$$



USA.gov is the U.S. government's official web portal to all federal, state and local government web resources and services.